New Cumberland, PA

7:55 AM EST on February 12, 2016 (GMT -0500)
Capital City

Weather History for KCXY - October, 2012

Change the Weather History Date:

Saturday, October 6, 2012

  Actual Average Record
Temperature  
Mean Temperature 56 °F -  
Max Temperature 66 °F 66 °F 93 °F (1941)
Min Temperature 48 °F 46 °F 32 °F (1958)
Degree Days  
Heating Degree Days 9    
Growing Degree Days 6 (Base 50)    
Moisture  
Dew Point 50 °F    
Average Humidity 74    
Maximum Humidity 97    
Minimum Humidity 48    
Precipitation  
Precipitation 0.00 in - - ()
Sea Level Pressure  
Sea Level Pressure 29.92 in    
Wind  
Wind Speed 4 mph (WNW)    
Max Wind Speed 17 mph    
Max Gust Speed 25 mph    
Visibility 9 miles    
Events      
Averages and records for this station are not official NWS values.
T = Trace of Precipitation, MM = Missing Value Source: NWS Daily Summary

Daily Weather History Graph

Daily Weather History Graph

Search for Another Location

Airport or City:

Trip Planner

Search our weather history database for the weather conditions in past years. The results will help you decide how hot, cold, wet, or windy it might be!

Date:

Astronomy

Oct. 06, 2012 Rise Set
Actual Time 7:09 AM EDT 6:40 PM EDT
Civil Twilight 6:42 AM EDT 7:07 PM EDT
Nautical Twilight 6:10 AM EDT 7:39 PM EDT
Astronomical Twilight 5:38 AM EDT 8:10 PM EDT
Moon 10:54 PM EDT (10/6) 1:02 PM EDT (10/6)
Length of Visible Light 12h 25m
Length of Day
11h 31m
Waning Gibbous, 65% of the Moon is Illuminated
Oct 6
Waning Gibbous
Oct 8
Last Quarter
Oct 15
New
Oct 21
First Quarter
Oct 29
Full

Hourly Weather History & Observations

Time (EDT) Temp. Dew Point Humidity Pressure Visibility Wind Dir Wind Speed Gust Speed Precip Events Conditions
12:56 AM 63.0 °F 55.9 °F 78% 29.91 in 10.0 mi Calm Calm - N/A   Clear
1:56 AM 59.0 °F 55.9 °F 90% 29.90 in 8.0 mi Calm Calm - N/A   Clear
2:56 AM 59.0 °F 55.9 °F 90% 29.88 in 8.0 mi NNW 3.5 mph - N/A   Clear
3:56 AM 60.1 °F 55.9 °F 86% 29.85 in 8.0 mi Calm Calm - N/A   Clear
4:56 AM 61.0 °F 57.0 °F 87% 29.85 in 9.0 mi Calm Calm - N/A   Clear
5:56 AM 57.9 °F 55.9 °F 93% 29.84 in 7.0 mi Calm Calm - N/A   Clear
6:56 AM 55.9 °F 55.0 °F 97% 29.84 in 7.0 mi Calm Calm - N/A   Clear
7:56 AM 57.9 °F 55.9 °F 93% 29.83 in 9.0 mi Calm Calm - N/A   Clear
8:56 AM 60.1 °F 57.0 °F 90% 29.84 in 10.0 mi West 5.8 mph - N/A   Mostly Cloudy
9:56 AM 61.0 °F 57.0 °F 87% 29.84 in 10.0 mi West 4.6 mph - N/A   Overcast
10:56 AM 64.0 °F 57.9 °F 80% 29.84 in 10.0 mi WSW 3.5 mph - 0.00 in   Overcast
11:56 AM 64.9 °F 57.9 °F 78% 29.86 in 10.0 mi West 6.9 mph - N/A   Overcast
12:26 PM 64.4 °F 55.4 °F 73% 29.88 in 10.0 mi WNW 12.7 mph 20.7 mph N/A   Overcast
12:56 PM 63.0 °F 53.1 °F 70% 29.89 in 10.0 mi NW 13.8 mph 19.6 mph N/A   Overcast
1:56 PM 64.9 °F 48.0 °F 54% 29.90 in 10.0 mi West 12.7 mph 24.2 mph N/A   Scattered Clouds
2:56 PM 64.0 °F 46.0 °F 52% 29.94 in 10.0 mi NW 17.3 mph 24.2 mph N/A   Scattered Clouds
3:56 PM 62.1 °F 42.1 °F 48% 29.95 in 10.0 mi NW 13.8 mph 25.3 mph N/A   Clear
4:56 PM 61.0 °F 42.1 °F 50% 29.95 in 10.0 mi NW 10.4 mph - N/A   Clear
5:56 PM 60.1 °F 41.0 °F 49% 29.96 in 10.0 mi West 11.5 mph - N/A   Clear
6:56 PM 55.9 °F 41.0 °F 57% 29.98 in 10.0 mi West 4.6 mph - N/A   Clear
7:56 PM 51.1 °F 44.1 °F 77% 30.01 in 10.0 mi West 3.5 mph - N/A   Clear
8:56 PM 52.0 °F 42.1 °F 69% 30.03 in 10.0 mi WSW 5.8 mph - N/A   Clear
9:56 PM 51.1 °F 41.0 °F 68% 30.05 in 10.0 mi West 5.8 mph - N/A   Clear
10:56 PM 48.9 °F 41.0 °F 74% 30.07 in 10.0 mi West 4.6 mph - N/A   Clear
11:56 PM 50.0 °F 41.0 °F 71% 30.08 in 10.0 mi West 3.5 mph - N/A   Clear